Weather observations for the past three days for
Decatur Airport
Metric (Imperial)
Date Time (cdt) Wind (kph) Vis. (km) Weather Sky Cond. Temperature (ºC) Relative Humidity Wind Chill (°C) Heat Index (°C) Pressure Precipitation (cm)
Air Dwpt 6 hour altimeter (cm) sea level (mb) 1 hr 3 hr 6 hr
Max. Min.
02 22:54 S 11 16.09 Fair CLR 27.2 20.6 67% 29 76.15 1014.4
02 21:54 SW 11 16.09 Fair CLR 27.8 20.6 65% 30 76.12 1014.2
02 20:54 S 9 16.09 Fair CLR 29.4 21.1 61% 32 76.12 1014.1
02 19:54 S 11 16.09 Fair CLR 29.4 21.7 63% 32 76.07 1013.6
02 18:54 SW 9 16.09 Fair CLR 32.2 22.2 36.1 32.2 56% 36 76.07 1013.6
02 17:54 SW 15 16.09 Fair CLR 35 20.6 43% 38 76.1 1013.7
02 16:54 SW 17 16.09 Fair CLR 35.6 20 40% 38 76.1 1013.7
02 15:54 SW 19 16.09 Fair CLR 36.1 20 39% 39 76.12 1014.0
02 14:54 S 20 16.09 Fair CLR 36.1 20.6 40% 39 76.17 1014.6
02 13:54 W 19 G 31 16.09 Fair CLR 36.1 20.6 40% 39 76.2 1015.0
02 12:54 W 19 G 31 16.09 Fair CLR 35 21.1 35 24.4 44% 39 76.23 1015.4
02 11:54 W 20 16.09 Fair CLR 33.9 21.1 47% 37 76.28 1016.0
02 10:54 SW 20 16.09 Fair CLR 32.2 21.7 54% 36 76.28 1016.3
02 09:54 SW 24 16.09 Fair CLR 30.6 21.1 57% 33 76.28 1016.1
02 08:54 SW 19 16.09 Fair CLR 28.9 21.7 65% 32 76.28 1016.1
02 07:54 SW 17 16.09 Fair CLR 26.1 21.1 74% 28 76.3 1016.4
02 06:54 SW 11 16.09 Fair CLR 24.4 21.1 25.6 24.4 82% 25 76.28 1016.2
02 05:54 SW 13 16.09 Fair CLR 24.4 21.1 82% 25 76.25 1015.9
02 04:54 SW 11 16.09 Fair CLR 24.4 20.6 79% 25 76.25 1015.8
02 03:54 S 11 16.09 Fair CLR 24.4 20.6 79% 25 76.23 1015.4
02 02:54 SW 9 16.09 Fair CLR 25 20 74% 26 76.23 1015.2
02 01:54 SW 11 16.09 Fair CLR 25 20 74% 26 76.25 1015.8
02 00:54 SW 11 16.09 Fair CLR 25.6 20 32.2 25.6 71% 27 76.25 1015.7
01 23:54 SW 13 16.09 Fair CLR 27.2 20 65% 29 76.23 1015.5
01 22:54 S 7 16.09 Fair CLR 27.2 20.6 67% 29 76.23 1015.5
01 21:54 S 6 16.09 Fair CLR 27.8 21.1 67% 30 76.23 1015.6
01 20:54 S 7 16.09 Fair CLR 27.8 21.7 69% 30 76.2 1015.1
01 19:54 S 9 16.09 Fair CLR 29.4 22.2 65% 33 76.15 1014.6
01 18:54 SE 9 16.09 Fair CLR 32.2 23.3 35.6 32.2 59% 37 76.17 1014.7
01 17:54 SW 6 16.09 Fair CLR 35 20.6 43% 38 76.17 1014.8
01 16:54 SW 11 16.09 Fair CLR 35.6 20.6 41% 39 76.17 1014.8
01 15:54 W 11 16.09 Fair CLR 35.6 20 40% 38 76.17 1015.0
01 14:54 W 13 16.09 Fair CLR 35.6 20.6 41% 39 76.2 1015.3
01 13:54 SW 15 16.09 Fair CLR 34.4 21.1 46% 38 76.25 1015.9
01 12:54 SW 13 16.09 Fair CLR 33.3 21.1 33.3 23.3 49% 37 76.3 1016.4
01 11:54 SW 17 16.09 Fair CLR 32.8 21.7 52% 36 76.33 1016.7
01 10:54 W 17 16.09 Fair CLR 31.1 21.1 55% 34 76.33 1017.0
01 09:54 W 20 16.09 Fair CLR 29.4 20.6 59% 32 76.33 1016.8
01 08:54 SW 20 16.09 Fair CLR 27.2 20.6 67% 29 76.33 1016.7
01 07:54 SW 15 16.09 Fair CLR 25 20.6 77% 26 76.33 1016.7
01 06:54 SW 17 16.09 Fair CLR 23.3 20 25.6 23.3 82% 76.28 1016.3
01 05:54 SW 17 16.09 Fair CLR 23.9 20 79% 24 76.25 1015.8
01 04:54 SW 15 16.09 Fair CLR 24.4 20.6 79% 25 76.25 1015.7
01 03:54 SW 15 16.09 Fair CLR 23.9 20 79% 24 76.23 1015.5
01 02:54 SW 13 16.09 Fair CLR 24.4 20 77% 25 76.23 1015.5
01 01:54 SW 17 16.09 Fair CLR 25 19.4 71% 26 76.23 1015.5
01 00:54 SW 15 16.09 Fair CLR 25.6 19.4 31.1 25.6 69% 27 76.23 1015.6
31 23:54 SW 19 16.09 Fair CLR 26.1 20 69% 27 76.23 1015.5
31 22:54 S 19 16.09 Fair CLR 27.2 20 65% 29 76.23 1015.4
31 21:54 S 15 16.09 Fair CLR 27.8 20 63% 29 76.23 1015.3
31 20:54 S 15 16.09 Fair CLR 28.9 20 59% 31 76.17 1014.9
31 19:54 S 15 16.09 Fair CLR 29.4 20.6 59% 32 76.12 1014.2
31 18:54 S 17 16.09 Fair CLR 31.1 20.6 35 31.1 54% 34 76.12 1014.2
31 17:54 S 15 16.09 Fair CLR 33.3 20.6 47% 36 76.12 1014.2
31 16:54 S 19 16.09 Fair CLR 34.4 20 43% 37 76.15 1014.3
31 15:54 S 22 16.09 Fair CLR 35 20 41% 38 76.15 1014.5
31 14:54 S 20 16.09 Fair CLR 34.4 19.4 41% 36 76.17 1014.9
31 13:54 S 22 16.09 Fair CLR 33.9 19.4 42% 36 76.23 1015.5
31 12:54 SW 19 16.09 Fair CLR 32.8 19.4 32.8 21.1 45% 35 76.28 1016.1
31 11:54 SW 19 16.09 Fair CLR 31.7 18.9 47% 33 76.3 1016.6
31 10:54 SW 22 16.09 Fair CLR 30 18.9 51% 31 76.33 1016.8
31 09:54 SW 19 16.09 Fair CLR 28.3 18.3 55% 29 76.3 1016.7
31 08:54 SW 20 16.09 Fair CLR 26.1 17.2 58% 27 76.33 1016.9
31 07:54 SW 17 16.09 Fair CLR 23.3 17.8 71% 76.3 1016.5
31 06:54 SW 11 16.09 Fair CLR 21.1 17.2 23.3 20.6 79% 76.25 1015.9
31 05:54 SW 11 16.09 Fair CLR 21.1 17.2 79% 76.25 1015.8
31 04:54 S 13 16.09 Fair CLR 21.7 16.7 73% 76.23 1015.5
31 03:54 SW 17 16.09 Fair CLR 22.8 16.7 69% 76.2 1015.2
31 02:54 S 9 16.09 Fair CLR 21.7 17.2 76% 76.2 1015.3
31 01:54 S 11 16.09 Fair CLR 22.8 17.2 71% 76.23 1015.6
31 00:54 S 9 16.09 Fair CLR 22.8 17.2 28.3 22.8 71% 76.25 1015.9
30 23:54 S 9 16.09 Fair CLR 24.4 16.7 62% 25 76.25 1015.7
Date Time (cdt) Wind (kph) Vis. (km) Weather Sky Cond. Air Dwpt Max. Min. Relative Humidity Wind Chill (°C) Heat Index (°C) altimeter (cm) sea level (mb) 1 hr 3 hr 6 hr
6 hour
Temperature (ºC) Pressure Precipitation (cm)